When you browse on this site, cookies collect data to enhance your experience and personalize the content and advertising you see.
Visit our Privacy Policy to learn more. By continuing to use the site, you agree to this use of cookies and data.
  • In Portugal
  • List of Countries
  • For 7 days
  • Water Temperature
  • Weather Map
  • Weather Widgets
  • user-avatar
    Login

    Hourly Weather Baraki Barak

    Today, 23 October, Wednesday

    Time Temperature Precipitation Wind Pressure Humidity
    00:00 +10°C° 0 mm 0 mps 597 mmHg 52%
    01:00 +9°C° 0 mm 0 mps 597 mmHg 54%
    02:00 +9°C° 0 mm 0 mps 596 mmHg 55%
    03:00 +8°C° 0 mm 0 mps 596 mmHg 56%
    04:00 +8°C° 0 mm 0 mps 596 mmHg 57%
    05:00 +7°C° 0 mm 0 mps 596 mmHg 61%
    06:00 +8°C° 0 mm 0 mps 596 mmHg 56%
    07:00 +10°C° 0 mm 1 mps 597 mmHg 52%
    08:00 +11°C° 0 mm 1 mps 598 mmHg 48%
    09:00 +12°C° 0 mm 1 mps 598 mmHg 43%
    10:00 +13°C° 0 mm 1 mps 598 mmHg 38%
    11:00 +14°C° 0 mm 1 mps 599 mmHg 34%
    12:00 +15°C° 0 mm 1 mps 598 mmHg 29%
    13:00 +16°C° 0 mm 1 mps 598 mmHg 25%
    14:00 +18°C° 0 mm 1 mps 598 mmHg 20%
    15:00 +18°C° 0 mm 1 mps 598 mmHg 20%
    16:00 +18°C° 0 mm 1 mps 598 mmHg 20%
    17:00 +18°C° 0 mm 1 mps 598 mmHg 19%
    18:00 +16°C° 0 mm 1 mps 598 mmHg 22%
    19:00 +15°C° 0 mm 1 mps 598 mmHg 24%
    20:00 +13°C° 0 mm 1 mps 598 mmHg 27%
    21:00 +13°C° 0 mm 1 mps 598 mmHg 30%
    22:00 +12°C° 0 mm 1 mps 597 mmHg 33%
    23:00 +11°C° 0 mm 1 mps 597 mmHg 36%

    Tomorrow, 24 October, Thursday

    Time Temperature Precipitation Wind Pressure Humidity
    00:00 +11°C° 0 mm 1 mps 597 mmHg 39%
    01:00 +9°C° 0 mm 0 mps 597 mmHg 42%
    02:00 +8°C° 0 mm 0 mps 596 mmHg 45%
    03:00 +8°C° 0 mm 0 mps 596 mmHg 47%
    04:00 +7°C° 0 mm 0 mps 596 mmHg 48%
    05:00 +7°C° 0 mm 0 mps 596 mmHg 49%
    06:00 +8°C° 0 mm 0 mps 597 mmHg 45%
    07:00 +9°C° 0 mm 0 mps 598 mmHg 40%
    08:00 +11°C° 0 mm 0 mps 599 mmHg 36%
    09:00 +12°C° 0 mm 0 mps 599 mmHg 32%
    10:00 +14°C° 0 mm 1 mps 599 mmHg 29%
    11:00 +15°C° 0 mm 1 mps 600 mmHg 25%
    12:00 +16°C° 0 mm 1 mps 599 mmHg 23%
    13:00 +18°C° 0 mm 1 mps 599 mmHg 21%
    14:00 +19°C° 0 mm 1 mps 599 mmHg 19%
    15:00 +18°C° 0 mm 1 mps 599 mmHg 19%
    16:00 +18°C° 0 mm 1 mps 599 mmHg 19%
    17:00 +17°C° 0 mm 2 mps 599 mmHg 19%
    18:00 +16°C° 0 mm 1 mps 599 mmHg 22%
    19:00 +14°C° 0 mm 1 mps 598 mmHg 25%
    20:00 +13°C° 0 mm 1 mps 598 mmHg 28%
    21:00 +12°C° 0 mm 1 mps 598 mmHg 31%
    22:00 +11°C° 0 mm 0 mps 598 mmHg 34%
    23:00 +10°C° 0 mm 0 mps 598 mmHg 37%

    Day after tomorrow, 25 October, Friday

    Time Temperature Precipitation Wind Pressure Humidity
    00:00 +9°C° 0 mm 0 mps 598 mmHg 39%
    01:00 +9°C° 0 mm 0 mps 597 mmHg 42%
    02:00 +8°C° 0 mm 0 mps 597 mmHg 45%
    03:00 +8°C° 0 mm 0 mps 597 mmHg 46%
    04:00 +7°C° 0 mm 0 mps 597 mmHg 47%
    05:00 +7°C° 0 mm 0 mps 596 mmHg 49%
    06:00 +8°C° 0 mm 0 mps 597 mmHg 44%
    07:00 +10°C° 0 mm 0 mps 598 mmHg 39%
    08:00 +11°C° 0 mm 0 mps 599 mmHg 34%
    09:00 +12°C° 0 mm 0 mps 599 mmHg 31%
    10:00 +13°C° 0 mm 0 mps 600 mmHg 28%
    11:00 +16°C° 0 mm 1 mps 600 mmHg 24%
    12:00 +18°C° 0 mm 1 mps 600 mmHg 22%
    13:00 +18°C° 0 mm 1 mps 600 mmHg 20%
    14:00 +18°C° 0 mm 2 mps 600 mmHg 18%
    15:00 +18°C° 0 mm 2 mps 599 mmHg 18%
    16:00 +18°C° 0 mm 2 mps 599 mmHg 18%
    17:00 +18°C° 0 mm 2 mps 599 mmHg 18%
    18:00 +16°C° 0 mm 1 mps 599 mmHg 21%
    19:00 +15°C° 0 mm 1 mps 599 mmHg 24%
    20:00 +13°C° 0 mm 1 mps 599 mmHg 28%
    21:00 +13°C° 0 mm 1 mps 599 mmHg 31%
    22:00 +12°C° 0 mm 1 mps 598 mmHg 34%
    23:00 +11°C° 0 mm 1 mps 598 mmHg 37%

    26 October, Saturday

    Time Temperature Precipitation Wind Pressure Humidity
    00:00 +11°C° 0 mm 1 mps 598 mmHg 39%
    01:00 +10°C° 0 mm 1 mps 598 mmHg 41%
    02:00 +10°C° 0 mm 1 mps 597 mmHg 44%
    03:00 +8°C° 0 mm 0 mps 597 mmHg 44%
    04:00 +8°C° 0 mm 0 mps 597 mmHg 43%
    05:00 +7°C° 0 mm 0 mps 597 mmHg 43%
    06:00 +9°C° 0 mm 0 mps 598 mmHg 40%
    07:00 +10°C° 0 mm 0 mps 599 mmHg 36%
    08:00 +11°C° 0 mm 0 mps 600 mmHg 32%
    09:00 +12°C° 0 mm 0 mps 600 mmHg 30%
    10:00 +14°C° 0 mm 0 mps 601 mmHg 27%
    11:00 +16°C° 0 mm 1 mps 601 mmHg 24%
    12:00 +18°C° 0 mm 1 mps 601 mmHg 22%
    13:00 +19°C° 0 mm 1 mps 601 mmHg 20%
    14:00 +18°C° 0 mm 2 mps 601 mmHg 18%
    15:00 +18°C° 0 mm 2 mps 601 mmHg 18%
    16:00 +18°C° 0 mm 2 mps 601 mmHg 18%
    17:00 +18°C° 0 mm 2 mps 601 mmHg 19%
    18:00 +16°C° 0 mm 2 mps 600 mmHg 23%
    19:00 +15°C° 0 mm 1 mps 600 mmHg 28%
    20:00 +13°C° 0 mm 1 mps 600 mmHg 33%
    21:00 +13°C° 0 mm 1 mps 600 mmHg 37%
    22:00 +12°C° 0 mm 1 mps 600 mmHg 41%
    23:00 +12°C° 0 mm 1 mps 600 mmHg 46%

    27 October, Sunday

    Time Temperature Precipitation Wind Pressure Humidity
    00:00 +11°C° 0 mm 1 mps 599 mmHg 48%
    01:00 +10°C° 0 mm 0 mps 599 mmHg 50%
    02:00 +9°C° 0 mm 0 mps 598 mmHg 52%
    03:00 +9°C° 0 mm 0 mps 598 mmHg 52%
    04:00 +9°C° 0 mm 0 mps 598 mmHg 51%
    05:00 +8°C° 0 mm 0 mps 598 mmHg 50%
    06:00 +9°C° 0 mm 0 mps 599 mmHg 47%
    07:00 +11°C° 0 mm 0 mps 600 mmHg 43%
    08:00 +12°C° 0 mm 0 mps 600 mmHg 40%
    09:00 +13°C° 0 mm 0 mps 601 mmHg 36%
    10:00 +14°C° 0 mm 0 mps 601 mmHg 32%
    11:00 +15°C° 0 mm 0 mps 601 mmHg 28%
    12:00 +18°C° 0 mm 1 mps 601 mmHg 26%
    13:00 +19°C° 0 mm 1 mps 601 mmHg 25%
    14:00 +19°C° 0 mm 2 mps 600 mmHg 23%
    15:00 +18°C° 0 mm 2 mps 600 mmHg 23%
    16:00 +18°C° 0 mm 2 mps 600 mmHg 24%
    17:00 +18°C° 0 mm 2 mps 600 mmHg 24%
    18:00 +17°C° 0 mm 2 mps 600 mmHg 27%
    19:00 +17°C° 0 mm 2 mps 601 mmHg 30%
    20:00 +16°C° 0 mm 2 mps 601 mmHg 33%
    21:00 +15°C° 0 mm 2 mps 601 mmHg 41%
    22:00 +13°C° 0 mm 2 mps 600 mmHg 49%
    23:00 +12°C° 0 mm 1 mps 600 mmHg 57%

    28 October, Monday

    Time Temperature Precipitation Wind Pressure Humidity
    00:00 +12°C° 0 mm 1 mps 599 mmHg 60%
    01:00 +11°C° 0 mm 1 mps 599 mmHg 63%
    02:00 +10°C° 0 mm 0 mps 598 mmHg 66%
    03:00 +9°C° 0 mm 0 mps 598 mmHg 68%
    04:00 +8°C° 0 mm 0 mps 598 mmHg 70%
    05:00 +8°C° 0 mm 0 mps 598 mmHg 73%
    06:00 +9°C° 0 mm 0 mps 598 mmHg 68%
    07:00 +10°C° 0 mm 0 mps 599 mmHg 64%
    08:00 +10°C° 0 mm 0 mps 600 mmHg 59%
    09:00 +12°C° 0 mm 0 mps 600 mmHg 53%
    10:00 +13°C° 0 mm 0 mps 600 mmHg 48%
    11:00 +15°C° 0 mm 0 mps 601 mmHg 42%
    12:00 +18°C° 0 mm 1 mps 601 mmHg 38%
    13:00 +18°C° 0 mm 1 mps 600 mmHg 35%
    14:00 +18°C° 0 mm 2 mps 600 mmHg 31%
    15:00 +17°C° 0.3 mm 3 mps 600 mmHg 40%
    16:00 +14°C° 0.3 mm 4 mps 599 mmHg 48%
    17:00 +13°C° 0.3 mm 6 mps 599 mmHg 57%
    18:00 +12°C° 0.8 mm 4 mps 599 mmHg 65%
    19:00 +11°C° 0.8 mm 3 mps 599 mmHg 73%
    20:00 +11°C° 0.8 mm 1 mps 598 mmHg 81%
    21:00 +11°C° 0 mm 1 mps 599 mmHg 80%
    22:00 +11°C° 0 mm 1 mps 599 mmHg 79%
    23:00 +10°C° 0 mm 0 mps 599 mmHg 78%

    29 October, Tuesday

    Time Temperature Precipitation Wind Pressure Humidity
    00:00 +10°C° 0 mm 0 mps 599 mmHg 78%
    01:00 +10°C° 0 mm 0 mps 599 mmHg 79%
    02:00 +9°C° 0 mm 0 mps 599 mmHg 80%
    03:00 +9°C° 0 mm 0 mps 599 mmHg 80%
    04:00 +9°C° 0 mm 0 mps 599 mmHg 80%
    05:00 +9°C° 0 mm 0 mps 599 mmHg 81%
    06:00 +9°C° 0 mm 0 mps 599 mmHg 78%
    07:00 +10°C° 0 mm 0 mps 600 mmHg 75%
    08:00 +10°C° 0 mm 0 mps 600 mmHg 72%
    09:00 +12°C° 0 mm 1 mps 601 mmHg 65%
    10:00 +14°C° 0 mm 1 mps 601 mmHg 58%
    11:00 +15°C° 0 mm 2 mps 602 mmHg 51%
    12:00 +15°C° 0.1 mm 2 mps 601 mmHg 49%
    13:00 +16°C° 0.1 mm 2 mps 601 mmHg 47%
    14:00 +16°C° 0.1 mm 1 mps 601 mmHg 45%
    15:00 +16°C° 0.3 mm 2 mps 601 mmHg 47%
    16:00 +16°C° 0.3 mm 2 mps 600 mmHg 49%
    17:00 +14°C° 0.3 mm 3 mps 600 mmHg 51%
    18:00 +15°C° 0.4 mm 2 mps 600 mmHg 56%
    19:00 +14°C° 0.4 mm 2 mps 600 mmHg 61%
    20:00 +13°C° 0.4 mm 1 mps 600 mmHg 66%
    21:00 +13°C° 0.3 mm 1 mps 600 mmHg 68%
    22:00 +12°C° 0.3 mm 1 mps 600 mmHg 69%
    23:00 +12°C° 0.3 mm 1 mps 600 mmHg 70%
    Show more